Flag for Canada Weather past 2 weeks in Kugluktuk, Nunavut, Canada

Now
63 °F

Passing clouds.


Feels Like: 63 °F
Forecast: 43 / 61 °F
Wind: No wind

Location: Coppermine

Current Time: Jun 30, 2015 at 11:52:14 AM

Latest Report: Jun 30, 2015 at 11:00 AM


Visibility: 12 mi

Pressure: 29.95 "Hg

Humidity: 59%

Dew point: 48 °F

Location of KugluktukLocation

Historic Weather in Kugluktuk — Graph

°F

Kugluktuk temperature yesterday

Maximum temperature yesterday: 64 °F (at 1:00 PM)
Minimum temperature yesterday: 41 °F (at 12:00 AM)
Average temperature yesterday: 52 °F

Past Weeks' High & Low Weather Summary

 TemperatureHumidityPressure
High72 °F (Jun 22, 5:00 PM)100% (Jun 17, 6:00 AM)30.16 "Hg (Jun 17, 6:00 AM)
Low34 °F (Jun 16, 12:00 AM)40% (Jun 22, 7:00 PM)29.55 "Hg (Jun 23, 7:00 AM)
Average45 °F77%29.86 "Hg
* Reported Jun 15 10:00 AM — Jun 30 10:00 AM, Kugluktuk, Weather by CustomWeather, © 2015

Note: Actual official high and low records may vary slightly from our data, if they occured in-between our weather recording intervals... More about our weather records

Advertising

Kugluktuk weather history for previous 24 hours

 ConditionsComfort  
Time TempWeatherWind HumidityBarometerVisibility
10:00 AM
Tue, Jun 30
59 °FPassing clouds.5 mph72%29.96 "Hg12 mi
9:00 AM57 °FPassing clouds.6 mph72%29.98 "Hg12 mi
8:00 AM55 °FPassing clouds.7 mph72%29.98 "Hg15 mi
7:00 AM52 °FScattered clouds.3 mph82%29.98 "Hg15 mi
6:00 AM48 °FFog.3 mph94%29.99 "Hg15 mi
5:00 AM48 °FFog.6 mph87%29.99 "Hg15 mi
4:00 AM48 °FFog.5 mph87%29.99 "Hg15 mi
3:00 AM48 °FFog.5 mph87%29.99 "Hg15 mi
2:00 AM48 °FFog.6 mph87%29.99 "Hg15 mi
1:00 AM46 °FScattered showers. Fog.8 mph93%29.99 "Hg15 mi
12:00 AM48 °FScattered showers. Mostly cloudy.7 mph87%29.99 "Hg15 mi
11:00 PM
Mon, Jun 29
48 °FScattered showers. Overcast.5 mph76%29.99 "Hg15 mi
10:00 PM46 °FLight rain. Mostly cloudy.6 mph87%29.98 "Hg15 mi
9:00 PM48 °FLight rain. Mostly cloudy.8 mph82%29.97 "Hg15 mi
8:45 PM48 °FLight rain. Mostly cloudy.10 mph82%29.97 "Hg15 mi
8:00 PM50 °FScattered showers. Low clouds.5 mph76%29.96 "Hg15 mi
7:00 PM52 °FScattered showers. Overcast.13 mph77%29.94 "Hg15 mi
6:00 PM52 °FScattered showers. More clouds than sun.8 mph88%29.92 "Hg15 mi
5:00 PM48 °FScattered showers. More clouds than sun.7 mph94%29.91 "Hg15 mi
4:50 PM48 °FScattered showers. More clouds than sun.13 mph82%29.90 "Hg15 mi
4:00 PM61 °FScattered showers. More clouds than sun.10 mph77%29.89 "Hg15 mi
3:00 PM63 °FMore clouds than sun.12 mph68%29.88 "Hg15 mi
2:00 PM64 °FBroken clouds.9 mph64%29.87 "Hg15 mi
1:00 PM64 °FPartly sunny.10 mph64%29.87 "Hg15 mi
12:00 PM63 °FMostly cloudy.12 mph68%29.87 "Hg15 mi
11:00 AM61 °FPartly sunny.12 mph72%29.86 "Hg15 mi
Weather by CustomWeather, © 2015

See weather overviewHow to use our weather pages